DAL5603 KDCA-KBNA

Flight info

Callsign DAL5603
Flight time 1h 31m
Altitude 36000
Route REBLL5 OTTTO Q80 DEWAK GROAT PASLY5
Aircraft B752/M-SDE2E3FGHIJ3J4J7RWXY/LB1

Departure

Time 2026-04-25 20:22
Airport Ronald Reagan Washington National Airport (KDCA)

Arrival

Time 2026-04-25 21:54
Airport Nashville International Airport (KBNA)
Time Latitude Longitude Altitude Speed Heading
2026-04-25 20:07 38.85553 -77.04272 25 ft 0 kts 338°
2026-04-25 20:15 38.85546 -77.04268 26 ft 3 kts 341°
2026-04-25 20:15 38.85527 -77.04264 26 ft 3 kts 359°
2026-04-25 20:16 38.85508 -77.04268 26 ft 3 kts 25°
2026-04-25 20:16 38.85494 -77.04283 26 ft 3 kts 52°
2026-04-25 20:16 38.85484 -77.04305 26 ft 3 kts 69°
2026-04-25 20:16 38.85479 -77.04324 26 ft 1 kts 72°
2026-04-25 20:18 38.85480 -77.04319 26 ft 4 kts 72°
2026-04-25 20:19 38.85503 -77.04226 26 ft 12 kts 72°
2026-04-25 20:19 38.85518 -77.04165 26 ft 2 kts 72°
2026-04-25 20:19 38.85539 -77.04080 26 ft 16 kts 72°
2026-04-25 20:19 38.85564 -77.03994 26 ft 4 kts 54°
2026-04-25 20:20 38.85641 -77.03969 26 ft 23 kts 356°
2026-04-25 20:20 38.85819 -77.03981 26 ft 23 kts 357°
2026-04-25 20:20 38.85927 -77.03985 26 ft 10 kts 17°
2026-04-25 20:20 38.86032 -77.03948 26 ft 22 kts 16°
2026-04-25 20:21 38.86091 -77.03894 26 ft 4 kts 110°
2026-04-25 20:21 38.86063 -77.03869 26 ft 0 kts 169°
2026-04-25 20:21 38.86052 -77.03866 26 ft 16 kts 170°
2026-04-25 20:21 38.85654 -77.03810 26 ft 96 kts 181°
2026-04-25 20:22 38.84766 -77.03732 36 ft 159 kts 171°
2026-04-25 20:22 38.84386 -77.03701 183 ft 163 kts 172°
2026-04-25 20:22 38.82527 -77.03571 1639 ft 161 kts 173°
2026-04-25 20:22 38.81344 -77.03560 2346 ft 177 kts 179°
2026-04-25 20:23 38.80090 -77.03630 3267 ft 181 kts 180°
2026-04-25 20:23 38.78807 -77.03620 4114 ft 190 kts 176°
2026-04-25 20:23 38.77444 -77.03530 4881 ft 202 kts 177°
2026-04-25 20:23 38.75982 -77.03480 5643 ft 217 kts 180°
2026-04-25 20:24 38.74431 -77.03618 6418 ft 232 kts 196°
2026-04-25 20:24 38.73023 -77.04677 7220 ft 244 kts 224°
2026-04-25 20:24 38.72138 -77.06571 8035 ft 257 kts 251°
2026-04-25 20:24 38.72039 -77.08891 8987 ft 267 kts 278°
2026-04-25 20:25 38.72795 -77.11080 10122 ft 274 kts 302°
2026-04-25 20:25 38.74073 -77.12947 11134 ft 284 kts 305°
2026-04-25 20:25 38.74980 -77.15232 11765 ft 296 kts 282°
2026-04-25 20:25 38.75077 -77.17905 12445 ft 309 kts 260°
2026-04-25 20:26 38.74449 -77.20598 13250 ft 322 kts 251°
2026-04-25 20:26 38.73846 -77.23408 14094 ft 333 kts 260°
2026-04-25 20:26 38.73865 -77.26385 15108 ft 338 kts 277°
2026-04-25 20:26 38.74432 -77.29333 16105 ft 344 kts 285°
2026-04-25 20:27 38.75195 -77.32268 17028 ft 350 kts 287°
2026-04-25 20:27 38.75956 -77.35249 17935 ft 354 kts 286°
2026-04-25 20:27 38.76667 -77.38290 18806 ft 359 kts 285°
2026-04-25 20:27 38.77350 -77.41387 19661 ft 364 kts 284°
2026-04-25 20:28 38.78034 -77.44534 20478 ft 369 kts 284°
2026-04-25 20:28 38.78727 -77.47715 21276 ft 373 kts 284°
2026-04-25 20:28 38.79436 -77.50943 22043 ft 378 kts 284°
2026-04-25 20:28 38.80155 -77.54206 22792 ft 383 kts 283°
2026-04-25 20:29 38.80882 -77.57506 23528 ft 387 kts 283°
2026-04-25 20:29 38.81617 -77.60855 24243 ft 391 kts 283°
2026-04-25 20:29 38.82264 -77.64255 24931 ft 395 kts 279°
2026-04-25 20:29 38.82684 -77.67697 25623 ft 397 kts 275°
2026-04-25 20:30 38.82991 -77.71228 26327 ft 400 kts 274°
2026-04-25 20:30 38.83273 -77.74790 27015 ft 402 kts 274°
2026-04-25 20:30 38.83577 -77.78417 27688 ft 406 kts 274°
2026-04-25 20:30 38.83898 -77.81976 28321 ft 409 kts 275°
2026-04-25 20:31 38.84238 -77.85615 28946 ft 412 kts 275°
2026-04-25 20:31 38.84551 -77.89284 29547 ft 414 kts 273°
2026-04-25 20:31 38.84732 -77.92983 30133 ft 417 kts 271°
2026-04-25 20:31 38.84830 -77.96702 30819 ft 416 kts 270°
2026-04-25 20:32 38.84904 -78.00398 31580 ft 413 kts 270°
2026-04-25 20:32 38.84985 -78.04070 32343 ft 410 kts 270°
2026-04-25 20:32 38.85078 -78.07715 33063 ft 407 kts 270°
2026-04-25 20:32 38.85179 -78.11331 33738 ft 404 kts 271°
2026-04-25 20:33 38.85282 -78.14929 34382 ft 402 kts 271°
2026-04-25 20:33 38.85384 -78.18513 34951 ft 401 kts 271°
2026-04-25 20:33 38.85458 -78.22082 35471 ft 400 kts 270°
2026-04-25 20:33 38.85466 -78.23236 35635 ft 400 kts 269°
2026-04-25 20:34 38.85438 -78.29220 35942 ft 402 kts 268°
2026-04-25 20:34 38.85402 -78.32814 35968 ft 404 kts 268°
2026-04-25 20:34 38.85040 -78.39964 35971 ft 404 kts 261°
2026-04-25 20:35 38.83896 -78.47034 35972 ft 405 kts 257°
2026-04-25 20:35 38.82635 -78.54075 35969 ft 405 kts 258°
2026-04-25 20:36 38.81460 -78.61136 35968 ft 405 kts 258°
2026-04-25 20:36 38.80301 -78.68204 35968 ft 405 kts 258°
2026-04-25 20:37 38.79130 -78.75262 35966 ft 405 kts 258°
2026-04-25 20:37 38.77951 -78.82317 35964 ft 405 kts 258°
2026-04-25 20:38 38.76768 -78.89374 35961 ft 405 kts 258°
2026-04-25 20:38 38.75581 -78.96430 35957 ft 405 kts 258°
2026-04-25 20:39 38.74398 -79.03434 35956 ft 405 kts 258°
2026-04-25 20:39 38.73599 -79.08149 35954 ft 405 kts 257°
2026-04-25 20:40 38.72003 -79.17530 35945 ft 405 kts 257°
2026-04-25 20:40 38.70801 -79.24579 35946 ft 405 kts 257°
2026-04-25 20:41 38.69632 -79.31637 35949 ft 405 kts 258°
2026-04-25 20:41 38.68477 -79.38696 35951 ft 404 kts 258°
2026-04-25 20:42 38.67512 -79.44543 35954 ft 404 kts 258°
2026-04-25 20:42 38.66344 -79.51578 35957 ft 404 kts 257°
2026-04-25 20:43 38.65171 -79.58609 35961 ft 404 kts 257°
2026-04-25 20:43 38.63996 -79.65636 35964 ft 404 kts 257°
2026-04-25 20:44 38.62795 -79.72654 35966 ft 404 kts 257°
2026-04-25 20:44 38.61534 -79.79656 35968 ft 404 kts 257°
2026-04-25 20:45 38.60267 -79.86656 35972 ft 404 kts 256°
2026-04-25 20:45 38.59004 -79.93655 35978 ft 404 kts 256°
2026-04-25 20:46 38.57735 -80.00667 35980 ft 405 kts 256°
2026-04-25 20:46 38.56463 -80.07672 35981 ft 404 kts 256°
2026-04-25 20:47 38.55185 -80.14668 35982 ft 404 kts 256°
2026-04-25 20:47 38.53893 -80.21658 35983 ft 404 kts 256°
2026-04-25 20:48 38.52595 -80.28647 35982 ft 404 kts 256°
2026-04-25 20:48 38.51296 -80.35629 35978 ft 404 kts 256°
2026-04-25 20:49 38.49999 -80.42572 35973 ft 404 kts 256°
2026-04-25 20:49 38.48690 -80.49556 35970 ft 404 kts 256°
2026-04-25 20:50 38.47380 -80.56521 35969 ft 403 kts 256°
2026-04-25 20:50 38.46066 -80.63479 35969 ft 403 kts 255°
2026-04-25 20:51 38.44748 -80.70436 35969 ft 403 kts 255°
2026-04-25 20:51 38.43429 -80.77375 35970 ft 402 kts 255°
2026-04-25 20:52 38.42330 -80.83138 35972 ft 402 kts 255°
2026-04-25 20:52 38.40782 -80.91228 35975 ft 401 kts 255°
2026-04-25 20:53 38.39452 -80.98150 35977 ft 401 kts 255°
2026-04-25 20:53 38.38121 -81.05061 35972 ft 401 kts 255°
2026-04-25 20:54 38.36731 -81.11930 35978 ft 400 kts 253°
2026-04-25 20:54 38.35102 -81.18658 35981 ft 399 kts 251°
2026-04-25 20:55 38.33431 -81.25401 35981 ft 399 kts 251°
2026-04-25 20:55 38.31788 -81.32160 35981 ft 399 kts 252°
2026-04-25 20:56 38.30153 -81.38899 35976 ft 398 kts 251°
2026-04-25 20:56 38.28509 -81.45634 35974 ft 398 kts 251°
2026-04-25 20:57 38.26863 -81.52355 35972 ft 397 kts 251°
2026-04-25 20:57 38.25215 -81.59071 35973 ft 397 kts 251°
2026-04-25 20:58 38.23564 -81.65778 35975 ft 397 kts 251°
2026-04-25 20:58 38.21887 -81.72479 35978 ft 397 kts 250°
2026-04-25 20:59 38.20047 -81.79096 35980 ft 396 kts 249°
2026-04-25 20:59 38.18185 -81.85639 35983 ft 396 kts 249°
2026-04-25 21:00 38.16942 -81.90051 35985 ft 396 kts 249°
2026-04-25 21:01 38.13549 -82.02117 35981 ft 396 kts 249°
2026-04-25 21:01 38.11687 -82.08704 35982 ft 396 kts 249°
2026-04-25 21:02 38.09821 -82.15287 35982 ft 396 kts 249°
2026-04-25 21:02 38.07951 -82.21869 35982 ft 396 kts 249°
2026-04-25 21:03 38.06079 -82.28445 35981 ft 396 kts 249°
2026-04-25 21:03 38.04202 -82.35020 35982 ft 396 kts 249°
2026-04-25 21:04 38.02323 -82.41584 35982 ft 396 kts 249°
2026-04-25 21:04 38.00441 -82.48146 35982 ft 396 kts 249°
2026-04-25 21:05 37.98560 -82.54684 35984 ft 396 kts 249°
2026-04-25 21:05 37.96669 -82.61246 35986 ft 396 kts 249°
2026-04-25 21:06 37.94774 -82.67800 35987 ft 396 kts 249°
2026-04-25 21:06 37.92876 -82.74352 35987 ft 396 kts 249°
2026-04-25 21:07 37.90975 -82.80900 35987 ft 396 kts 249°
2026-04-25 21:07 37.89053 -82.87444 35987 ft 397 kts 249°
2026-04-25 21:08 37.87086 -82.93976 35988 ft 397 kts 248°
2026-04-25 21:08 37.85114 -83.00512 35988 ft 397 kts 248°
2026-04-25 21:09 37.82158 -83.10306 35984 ft 397 kts 248°
2026-04-25 21:09 37.80197 -83.16787 35983 ft 398 kts 248°
2026-04-25 21:10 37.78189 -83.23359 35980 ft 398 kts 246°
2026-04-25 21:10 37.75647 -83.29527 35982 ft 398 kts 240°
2026-04-25 21:11 37.72869 -83.35579 35981 ft 398 kts 240°
2026-04-25 21:11 37.70066 -83.41623 35981 ft 399 kts 240°
2026-04-25 21:12 37.67255 -83.47668 35981 ft 399 kts 240°
2026-04-25 21:12 37.64917 -83.52687 35981 ft 399 kts 240°
2026-04-25 21:13 37.61623 -83.59747 35980 ft 399 kts 240°
2026-04-25 21:13 37.58799 -83.65785 35980 ft 399 kts 240°
2026-04-25 21:14 37.55977 -83.71810 35981 ft 399 kts 240°
2026-04-25 21:14 37.53149 -83.77837 35981 ft 399 kts 240°
2026-04-25 21:15 37.50336 -83.83819 35980 ft 399 kts 240°
2026-04-25 21:15 37.47500 -83.89840 35980 ft 399 kts 239°
2026-04-25 21:16 37.44664 -83.95852 35980 ft 399 kts 239°
2026-04-25 21:16 37.41823 -84.01861 35979 ft 399 kts 240°
2026-04-25 21:17 37.38976 -84.07872 35980 ft 400 kts 240°
2026-04-25 21:17 37.36121 -84.13891 35980 ft 400 kts 240°
2026-04-25 21:18 37.33262 -84.19907 35976 ft 401 kts 240°
2026-04-25 21:18 37.30402 -84.25914 35972 ft 401 kts 240°
2026-04-25 21:19 37.27555 -84.31883 35970 ft 401 kts 240°
2026-04-25 21:19 37.24685 -84.37892 35967 ft 401 kts 240°
2026-04-25 21:20 37.22767 -84.41899 35965 ft 401 kts 240°
2026-04-25 21:20 37.19120 -84.49508 35959 ft 401 kts 240°
2026-04-25 21:21 37.16386 -84.55202 35952 ft 401 kts 240°
2026-04-25 21:21 37.13499 -84.61204 35947 ft 402 kts 240°
2026-04-25 21:22 37.10610 -84.67198 35944 ft 402 kts 240°
2026-04-25 21:22 37.07712 -84.73204 35294 ft 407 kts 240°
2026-04-25 21:23 37.06250 -84.76231 34325 ft 415 kts 240°
2026-04-25 21:23 37.04744 -84.79348 33336 ft 422 kts 239°
2026-04-25 21:23 37.03211 -84.82515 32553 ft 424 kts 239°
2026-04-25 21:23 37.01689 -84.85657 31915 ft 421 kts 239°
2026-04-25 21:24 37.00171 -84.88786 31264 ft 419 kts 239°
2026-04-25 21:24 36.98664 -84.91888 30610 ft 418 kts 239°
2026-04-25 21:24 36.97664 -84.93948 30178 ft 417 kts 239°
2026-04-25 21:24 36.96162 -84.97036 29529 ft 414 kts 239°
2026-04-25 21:25 36.94671 -85.00098 28890 ft 409 kts 239°
2026-04-25 21:25 36.93196 -85.03126 28264 ft 406 kts 239°
2026-04-25 21:25 36.91730 -85.06132 27639 ft 404 kts 240°
2026-04-25 21:25 36.90272 -85.09119 27021 ft 401 kts 240°
2026-04-25 21:26 36.88826 -85.12078 26408 ft 398 kts 240°
2026-04-25 21:26 36.87390 -85.15016 25807 ft 395 kts 240°
2026-04-25 21:26 36.85964 -85.17933 25204 ft 392 kts 240°
2026-04-25 21:26 36.84542 -85.20836 24607 ft 389 kts 240°
2026-04-25 21:27 36.83152 -85.23675 24019 ft 387 kts 240°
2026-04-25 21:27 36.81753 -85.26530 23432 ft 384 kts 240°
2026-04-25 21:27 36.80362 -85.29367 22849 ft 382 kts 240°
2026-04-25 21:27 36.78981 -85.32183 22288 ft 379 kts 240°
2026-04-25 21:28 36.77622 -85.34951 22072 ft 367 kts 240°
2026-04-25 21:28 36.76319 -85.37602 22046 ft 349 kts 240°
2026-04-25 21:28 36.75081 -85.40126 22028 ft 334 kts 240°
2026-04-25 21:28 36.73896 -85.42600 21848 ft 331 kts 241°
2026-04-25 21:29 36.72742 -85.45068 21601 ft 328 kts 241°
2026-04-25 21:29 36.71594 -85.47533 21407 ft 328 kts 241°
2026-04-25 21:29 36.70446 -85.49986 21222 ft 328 kts 241°
2026-04-25 21:29 36.69292 -85.52440 21034 ft 328 kts 241°
2026-04-25 21:30 36.68139 -85.54884 20845 ft 327 kts 241°
2026-04-25 21:30 36.66987 -85.57324 20657 ft 326 kts 241°
2026-04-25 21:30 36.65840 -85.59756 20471 ft 325 kts 241°
2026-04-25 21:31 36.63311 -85.65112 20058 ft 324 kts 240°
2026-04-25 21:31 36.62170 -85.67525 19872 ft 323 kts 240°
2026-04-25 21:31 36.61028 -85.69937 19686 ft 322 kts 240°
2026-04-25 21:31 36.59891 -85.72338 19500 ft 321 kts 240°
2026-04-25 21:32 36.58755 -85.74737 19317 ft 321 kts 240°
2026-04-25 21:32 36.57621 -85.77127 19132 ft 320 kts 240°
2026-04-25 21:32 36.56489 -85.79513 19057 ft 320 kts 240°
2026-04-25 21:32 36.55356 -85.81898 18727 ft 321 kts 240°
2026-04-25 21:33 36.54220 -85.84291 18285 ft 320 kts 240°
2026-04-25 21:33 36.53094 -85.86658 17944 ft 316 kts 240°
2026-04-25 21:33 36.51994 -85.88970 17630 ft 314 kts 240°
2026-04-25 21:33 36.50882 -85.91304 17309 ft 313 kts 240°
2026-04-25 21:34 36.49774 -85.93631 16985 ft 312 kts 240°
2026-04-25 21:34 36.48670 -85.95946 16663 ft 310 kts 240°
2026-04-25 21:34 36.47572 -85.98246 16339 ft 309 kts 240°
2026-04-25 21:34 36.46476 -86.00542 16019 ft 308 kts 240°
2026-04-25 21:35 36.45383 -86.02829 15703 ft 307 kts 240°
2026-04-25 21:35 36.44294 -86.05109 15386 ft 306 kts 240°
2026-04-25 21:35 36.43205 -86.07382 15070 ft 305 kts 240°
2026-04-25 21:35 36.42122 -86.09644 14757 ft 305 kts 240°
2026-04-25 21:36 36.41040 -86.11903 14443 ft 304 kts 240°
2026-04-25 21:36 36.39960 -86.14153 14130 ft 303 kts 240°
2026-04-25 21:36 36.38884 -86.16395 13820 ft 302 kts 239°
2026-04-25 21:36 36.37811 -86.18630 13508 ft 301 kts 239°
2026-04-25 21:37 36.36740 -86.20860 13196 ft 300 kts 239°
2026-04-25 21:37 36.36393 -86.21581 13090 ft 300 kts 239°
2026-04-25 21:37 36.34707 -86.25121 12905 ft 316 kts 240°
2026-04-25 21:37 36.33603 -86.27432 12856 ft 306 kts 239°
2026-04-25 21:38 36.32511 -86.29691 12882 ft 303 kts 239°
2026-04-25 21:38 36.31432 -86.31919 12738 ft 301 kts 239°
2026-04-25 21:38 36.30353 -86.34145 12357 ft 301 kts 239°
2026-04-25 21:38 36.29278 -86.36363 11948 ft 300 kts 239°
2026-04-25 21:39 36.28203 -86.38580 11545 ft 299 kts 239°
2026-04-25 21:39 36.27134 -86.40785 11198 ft 297 kts 239°
2026-04-25 21:39 36.26084 -86.42952 10974 ft 290 kts 239°
2026-04-25 21:39 36.25049 -86.45092 10613 ft 290 kts 239°
2026-04-25 21:40 36.24011 -86.47236 10218 ft 290 kts 239°
2026-04-25 21:40 36.23324 -86.48654 9963 ft 290 kts 240°
2026-04-25 21:40 36.22239 -86.50710 9720 ft 276 kts 231°
2026-04-25 21:40 36.20782 -86.52236 9502 ft 276 kts 210°
2026-04-25 21:41 36.18998 -86.53106 9179 ft 277 kts 196°
2026-04-25 21:41 36.17117 -86.53697 8768 ft 280 kts 194°
2026-04-25 21:41 36.15226 -86.54337 8359 ft 283 kts 197°
2026-04-25 21:41 36.13391 -86.55060 8056 ft 266 kts 199°
2026-04-25 21:42 36.11716 -86.55758 8004 ft 247 kts 199°
2026-04-25 21:42 36.10096 -86.56428 7985 ft 244 kts 199°
2026-04-25 21:42 36.08485 -86.57091 7851 ft 244 kts 198°
2026-04-25 21:42 36.06880 -86.57752 7700 ft 240 kts 198°
2026-04-25 21:43 36.05324 -86.58394 7330 ft 240 kts 198°
2026-04-25 21:43 36.03743 -86.59049 7105 ft 239 kts 198°
2026-04-25 21:43 36.02167 -86.59705 6863 ft 239 kts 198°
2026-04-25 21:43 36.00589 -86.60363 6617 ft 239 kts 198°
2026-04-25 21:44 35.99019 -86.61021 6389 ft 238 kts 199°
2026-04-25 21:44 35.97454 -86.61670 6178 ft 236 kts 199°
2026-04-25 21:44 35.94346 -86.62950 6014 ft 235 kts 199°
2026-04-25 21:45 35.92800 -86.63588 5914 ft 233 kts 199°
2026-04-25 21:45 35.91778 -86.64009 5763 ft 233 kts 199°
2026-04-25 21:45 35.89715 -86.64860 5440 ft 233 kts 199°
2026-04-25 21:45 35.88177 -86.65495 5210 ft 233 kts 199°
2026-04-25 21:46 35.86642 -86.66130 4985 ft 232 kts 199°
2026-04-25 21:46 35.85111 -86.66763 4762 ft 232 kts 199°
2026-04-25 21:46 35.83589 -86.67407 4532 ft 231 kts 201°
2026-04-25 21:46 35.82300 -86.68540 4092 ft 228 kts 231°
2026-04-25 21:47 35.81660 -86.70289 3521 ft 225 kts 263°
2026-04-25 21:47 35.81879 -86.72153 3204 ft 224 kts 295°
2026-04-25 21:47 35.82695 -86.73789 3096 ft 223 kts 311°
2026-04-25 21:47 35.83939 -86.74813 3013 ft 217 kts 340°
2026-04-25 21:48 35.85380 -86.75370 3027 ft 217 kts 345°
2026-04-25 21:48 35.86837 -86.75842 2988 ft 216 kts 349°
2026-04-25 21:48 35.88335 -86.76001 2998 ft 216 kts 359°
2026-04-25 21:48 35.89815 -86.75756 2996 ft 215 kts 15°
2026-04-25 21:49 35.91231 -86.75136 3004 ft 216 kts 22°
2026-04-25 21:49 35.92593 -86.74361 2999 ft 215 kts 26°
2026-04-25 21:49 35.93972 -86.73623 2997 ft 216 kts 20°
2026-04-25 21:49 35.95406 -86.73061 2999 ft 215 kts 17°
2026-04-25 21:50 35.96813 -86.72544 2993 ft 206 kts 17°
2026-04-25 21:50 35.98143 -86.72019 3005 ft 198 kts 18°
2026-04-25 21:50 35.99460 -86.71485 2922 ft 199 kts 18°
2026-04-25 21:50 36.00334 -86.71133 2783 ft 199 kts 18°
2026-04-25 21:51 36.02076 -86.70438 2489 ft 194 kts 18°
2026-04-25 21:51 36.03299 -86.69949 2248 ft 179 kts 18°
2026-04-25 21:51 36.04416 -86.69503 2050 ft 161 kts 18°
2026-04-25 21:51 36.05445 -86.69091 1834 ft 147 kts 17°
2026-04-25 21:52 36.06345 -86.68731 1621 ft 127 kts 17°
2026-04-25 21:52 36.07172 -86.68401 1390 ft 125 kts 17°
2026-04-25 21:52 36.07984 -86.68069 1201 ft 122 kts 17°
2026-04-25 21:52 36.08796 -86.67736 1080 ft 125 kts 17°
2026-04-25 21:53 36.09638 -86.67414 1014 ft 127 kts 16°
2026-04-25 21:53 36.10472 -86.67074 886 ft 127 kts 16°
2026-04-25 21:53 36.11327 -86.66743 645 ft 128 kts 17°
2026-04-25 21:53 36.12091 -86.66436 610 ft 92 kts 17°
2026-04-25 21:54 36.12496 -86.66274 610 ft 34 kts 17°
2026-04-25 21:54 36.12623 -86.66302 610 ft 7 kts 299°
2026-04-25 21:54 36.12626 -86.66317 610 ft 7 kts 284°
2026-04-25 21:54 36.12607 -86.66370 610 ft 10 kts 200°
2026-04-25 21:55 36.12464 -86.66427 610 ft 30 kts 198°
2026-04-25 21:55 36.12302 -86.66501 610 ft 15 kts 234°
2026-04-25 21:55 36.12292 -86.66586 610 ft 11 kts 285°
2026-04-25 21:55 36.12336 -86.66760 610 ft 25 kts 288°
2026-04-25 21:56 36.12385 -86.66878 610 ft 14 kts 314°
2026-04-25 21:56 36.12436 -86.66938 610 ft 13 kts 329°
2026-04-25 21:56 36.12540 -86.66918 610 ft 17 kts 29°
2026-04-25 21:56 36.12614 -86.66861 610 ft 7 kts 37°
2026-04-25 21:57 36.12652 -86.66823 610 ft 14 kts 40°
2026-04-25 21:57 36.12706 -86.66790 610 ft 4 kts 355°
2026-04-25 21:57 36.12739 -86.66808 610 ft 3 kts 306°
2026-04-25 21:57 36.12765 -86.66845 610 ft 4 kts 311°
2026-04-25 21:58 36.12766 -86.66847 610 ft 0 kts 311°